Flag for Poland Weather past 2 weeks in Słupsk, Poland

Now
66 °F

Scattered clouds.


Feels Like: 66 °F
Forecast: 50 / 68 °F
Wind: 10 mph from West

Location: Leba

Current Time: Aug 28, 2015 at 3:16:35 PM

Latest Report: Aug 28, 2015 at 2:00 PM


Visibility: 13 mi

Pressure: 29.98 "Hg

Humidity: 73%

Dew point: 57 °F

Location of SłupskLocation

Historic Weather in Słupsk — Graph

°F

Słupsk temperature yesterday

Maximum temperature yesterday: 82 °F (at 3:00 PM)
Minimum temperature yesterday: 60 °F (at 2:00 AM)
Average temperature yesterday: 67 °F

Past Weeks' High & Low Weather Summary

 TemperatureHumidityPressure
High82 °F (Aug 27, 3:00 PM)100% (Aug 23, 7:00 AM)30.40 "Hg (Aug 23, 7:00 AM)
Low49 °F (Aug 22, 5:00 AM)38% (Aug 27, 2:00 PM)29.78 "Hg (Aug 25, 8:00 AM)
Average66 °F69%30.07 "Hg
* Reported Aug 13 2:00 PM — Aug 28 2:00 PM, Słupsk, Weather by CustomWeather, © 2015

Note: Actual official high and low records may vary slightly from our data, if they occured in-between our weather recording intervals... More about our weather records

Advertising

Słupsk weather history for previous 24 hours

 ConditionsComfort  
Time TempWeatherWind HumidityBarometerVisibility
2:00 PM
Fri, Aug 28
66 °FScattered clouds.10 mph73%29.98 "Hg12 mi
1:00 PM65 °FPartly sunny.10 mph78%29.96 "Hg12 mi
12:00 PMN/APassing clouds.25 mphN/AN/A4 mi
11:00 AMN/APassing clouds.30 mphN/AN/A2 mi
10:00 AM60 °FOvercast.7 mph92%29.90 "Hg12 mi
9:00 AM60 °FLight rain. Low clouds.5 mph98%29.88 "Hg12 mi
8:00 AM60 °FLight rain. Low clouds.10 mph97%29.85 "Hg2 mi
7:00 AM62 °FLight rain. Overcast.5 mph98%29.82 "Hg6 mi
5:00 AM61 °FLight rain. Low clouds.1 mph98%29.80 "Hg6 mi
4:00 AM61 °FLight rain. Low clouds.3 mph97%29.80 "Hg8 mi
3:00 AM62 °FLight rain. Overcast.5 mph94%29.80 "Hg11 mi
2:00 AM63 °FLight rain. Overcast.3 mph82%29.81 "Hg12 mi
1:00 AM63 °FLight rain. Overcast.5 mph86%29.80 "Hg12 mi
11:00 PM
Thu, Aug 27
63 °FPassing clouds.30 mph87%29.85 "Hg2 mi
10:00 PM64 °FOvercast.1 mph85%29.87 "Hg12 mi
9:00 PM63 °FLight rain. Overcast.2 mph88%29.86 "Hg12 mi
8:00 PM64 °FLight rain. Overcast.1 mph85%29.88 "Hg12 mi
7:00 PM66 °FLight rain. Overcast.1 mph76%29.89 "Hg12 mi
6:00 PM66 °FOvercast.3 mph72%29.88 "Hg12 mi
5:00 PM66 °FOvercast.5 mph70%29.88 "Hg12 mi
4:00 PM68 °FOvercast.8 mph63%29.87 "Hg12 mi
3:00 PM82 °FOvercast.9 mph38%29.85 "Hg12 mi
Weather by CustomWeather, © 2015

See weather overviewHow to use our weather pages